Flag for Canada Weather past 2 weeks in Saint-Georges, Quebec, Canada

Now
67 °F

Mild.


Feels Like: 67 °F
Forecast: 57 / 72 °F
Wind: 3 mph from South

Location: Beauceville

Current Time: May 28, 2015 at 12:11:10 AM

Latest Report: May 27, 2015 at 11:00 PM


Visibility: N/A

Pressure: 29.95 "Hg

Humidity: 97%

Dew point: 67 °F

Location of Saint-GeorgesLocation

Historic Weather in Saint-Georges — Graph

°F

Saint-Georges temperature yesterday

Maximum temperature yesterday: 85 °F (at 2:00 PM)
Minimum temperature yesterday: 60 °F (at 2:00 AM)
Average temperature yesterday: 69 °F

Past Weeks' High & Low Weather Summary

 TemperatureHumidityPressure
High85 °F (May 27, 2:00 PM)100% (May 25, 9:00 PM)30.32 "Hg (May 25, 9:00 PM)
Low31 °F (May 23, 2:00 AM)21% (May 15, 1:00 PM)29.60 "Hg (May 19, 8:00 PM)
Average56 °F63%30.01 "Hg
* Reported May 13 1:00 AM — May 27 11:00 PM, Saint-Georges, Weather by CustomWeather, © 2015

Note: Actual official high and low records may vary slightly from our data, if they occured in-between our weather recording intervals... More about our weather records

Advertising

Saint-Georges weather history for previous 24 hours

 ConditionsComfort  
Time TempWeatherWind HumidityBarometerVisibility
11:00 PM
Wed, May 27
67 °FMild.3 mph97%29.95 "HgN/A
10:00 PM69 °FMild.5 mph95%29.94 "HgN/A
9:00 PM70 °FMild.2 mph98%29.94 "HgN/A
8:00 PM71 °FMild.3 mph98%29.91 "HgN/A
7:00 PM73 °FMild.3 mph88%29.90 "HgN/A
6:00 PM72 °FMild.3 mph94%29.89 "HgN/A
5:00 PM71 °FMild.3 mph98%29.91 "HgN/A
4:00 PM71 °FMild.3 mph88%29.93 "HgN/A
3:00 PM75 °FMild.12 mph60%29.92 "HgN/A
2:00 PM85 °FWarm.8 mph48%29.90 "HgN/A
1:00 PM83 °FWarm.7 mph49%29.93 "HgN/A
12:00 PM82 °FWarm.6 mph53%29.97 "HgN/A
11:00 AM78 °FWarm.8 mph63%29.98 "HgN/A
10:00 AM75 °FMild.6 mph70%30.00 "HgN/A
9:00 AM65 °FMild.5 mph85%30.03 "HgN/A
8:00 AM62 °FMild.1 mph91%30.04 "HgN/A
7:00 AM62 °FCool.3 mph93%30.03 "HgN/A
6:00 AM60 °FCool.2 mph97%30.04 "HgN/A
5:00 AM60 °FCool.2 mph99%30.03 "HgN/A
4:00 AM60 °FCool.3 mph96%30.03 "HgN/A
3:00 AM61 °FCool.3 mph93%30.03 "HgN/A
2:00 AM60 °FCool.1 mph100%30.03 "HgN/A
1:00 AM65 °FMild.1 mph84%30.03 "HgN/A
12:00 AM67 °FMild.2 mph79%30.01 "HgN/A
Weather by CustomWeather, © 2015

See weather overviewHow to use our weather pages